Tracking 35275 objects as of 9-Sep-2026
HD Live streaming from Space Station
objects crossing your sky now

STARLINK-34549

Track STARLINK-34549 now!
10-day predictions
STARLINK-34549 is classified as:


NORAD ID: 65017
Int'l Code: 2025-161C
Launch date: July 30, 2025
Source: United States (US)
Launch site: AIR FORCE EASTERN TEST RANGE (AFETR)
Your satellite tracking list
Your tracking list is empty




NASA's NSSDC Master Catalog

Two Line Element Set (TLE):
1 65017U 25161C   26252.16691673  .00023777  00000-0  71205-3 0  9994
2 65017  53.1602 160.3663 0000295 282.4323  77.6646 15.34425634 63555
Source of the keplerian elements: AFSPC